Weather Roundup
Issued by NWS

Home | Current Version | Previous Version | Graphics & Text | Print | Product List | Glossary Off
Versions: 1 2 3 4 5 6 7 8 9 10 11 12 13 14 15 16 17 18 19 20 21 22 23 24 25 26 27 28 29 30 31 32 33 34 35 36 37 38 39 40 41 42 43 44 45 46 47 48 49 50

000
NZUS93 KARX 301110
HRRWXR

CURRENT HOURLY OBSERVATIONS ACROSS
MUCH OF THE UPPER MISSISSIPPI VALLEY
NATIONAL WEATHER SERVICE LA CROSSE WI
600 AM CDT SAT APR 30 2016


...SOUTHEAST MINNESOTA...


CITY           SKY/WX    TMP DP  RH WIND       PRES   REMARKS
ROCHESTER      CLOUDY    41  38  89 E12       30.04F
ROCHESTER/MAYO FAIR      43  37  80 E12G17    30.05F
WINONA         CLOUDY    41  37  87 CALM      30.09S
AUSTIN         CLOUDY    43  37  81 E12       30.00F
ALBERT LEA     CLOUDY    43  39  87 NE12      30.00F
DODGE CENTER   CLOUDY    41  37  87 E14       30.04R
PRESTON        CLOUDY    40  36  84 NE8       30.04F WCI  35
OWATONNA       CLOUDY    43  37  81 NE9       30.04S
FARIBAULT      CLOUDY    41  37  87 NE5       30.05S
$$

...ELSEWHERE IN MINNESOTA...


CITY           SKY/WX    TMP DP  RH WIND       PRES   REMARKS
MINNEAPOLIS    CLOUDY    42  31  64 NE10      30.08F
INTNL FALLS    CLEAR     28  26  92 CALM      30.30R
DULUTH         PTCLDY    36  29  75 E14       30.22S WCI  27
RED WING       PTCLDY    43  34  70 E9        30.07S
REDWOOD FALLS  CLOUDY    42  34  73 E7        30.04F
MANKATO        CLOUDY    45  37  76 NE14      30.03S
WORTHINGTON    MOCLDY    42  38  85 NE20      29.95F
FAIRMONT       CLOUDY    45  30  57 NE15      29.98F
$$

...SOUTHWEST WISCONSIN...


CITY           SKY/WX    TMP DP  RH WIND       PRES   REMARKS
LA CROSSE      CLOUDY    44  36  73 E6        30.08F
PRAIRIE DU CHI CLOUDY    44  37  76 E8        30.03F
BOSCOBEL       CLOUDY    45  38  76 NE7       30.05F
LONE ROCK      CLOUDY    45  37  73 E12       30.06F
PLATTEVILLE    MOCLDY    42  40  91 E13       30.01F
FORT MC COY    CLOUDY    34  34  99 CALM      30.10F
CAMP DOUGLAS     N/A     35  35  99 E5        30.09F WCI  31
MAUSTON-NEW LI NOT AVBL
VIROQUA        CLOUDY    42  38  86 E13       30.05F
WIS DELLS      CLOUDY    40  32  72 E7        30.07F
$$

...ELSEWHERE IN WISCONSIN...


CITY           SKY/WX    TMP DP  RH WIND       PRES   REMARKS
MILWAUKEE      MOCLDY    42  37  82 NE9       30.10S
MADISON        CLOUDY    42  32  67 E9        30.08S
GREEN BAY      PTCLDY    42  38  85 NE10      30.15S
EAU CLAIRE     PTCLDY    38  34  85 NE7       30.11F WCI  33
BLACK RVR FLS  FAIR      37  36  96 NE5       30.10F WCI  33
MEDFORD        CLOUDY    34  30  85 NE7       30.13S WCI  28
WAUSAU         CLOUDY    39  29  67 E3        30.13S
WIS RAPIDS     CLOUDY    39  29  67 E7        30.14F WCI  34
MARSHFIELD     MOCLDY    38  30  73 E7        30.12R WCI  33
RICE LAKE      CLEAR     37  31  79 NE5       30.16S WCI  33
$$

...NORTHEAST IOWA...


CITY           SKY/WX    TMP DP  RH WIND       PRES   REMARKS
WATERLOO       CLOUDY    44  39  82 E16       29.95F
DUBUQUE        CLOUDY    43  39  86 E9        30.01R
DECORAH        CLOUDY    43  39  87 E15       30.00F
MASON CITY     CLOUDY    44  39  82 NE14      29.97F
CHARLES CITY   CLOUDY    43  43 100 E15       29.99S
OELWEIN        CLOUDY    43  41  93 E15       29.97F
$$

...ELSEWHERE IN IOWA...


CITY           SKY/WX    TMP DP  RH WIND       PRES   REMARKS
DES MOINES     LGT RAIN  46  42  86 E15G29    29.82F FOG
IOWA CITY      LGT RAIN  44  42  93 NE13G21   29.95F FOG
FORT DODGE     CLOUDY    43  37  81 E17G23    29.90F
MARSHALLTOWN   CLOUDY    44  41  89 E21       29.89F
CEDAR RAPIDS   LGT RAIN  44  43  96 E15       29.94F FOG
$$

...NORTHERN ILLINOIS...


CITY           SKY/WX    TMP DP  RH WIND       PRES   REMARKS
CHICAGO-OHARE  CLOUDY    45  41  86 E8        30.06R
CHICAGO-MIDWAY CLOUDY    48  41  76 E10       30.06R FOG
MOLINE         CLOUDY    46  42  86 E14       29.95F FOG
ROCKFORD       CLOUDY    45  38  76 E13       30.06S
PEORIA         CLOUDY    47  44  90 E18       29.94F FOG
$$

NOTE: "FAIR" INDICATES FEW OR NO CLOUDS BELOW 12,000 FEET WITH NO
SIGNIFICANT WEATHER AND/OR OBSTRUCTIONS TO VISIBILITY. WIND
SPEEDS ARE IN MILES-PER-HOUR.




USA.gov is the U.S. government's official web portal to all federal, state and local government web resources and services.